{"data":{"norad_id":60063,"epoch":"2026-09-21T14:34:47.713152Z","epoch_age_seconds":81634,"freshness":"FRESH","line1":"1 60063U 24113E   26264.60749668 -.00000407  00000+0  14952-5 0  9999","line2":"2 60063  53.1583 305.3099 0001119  84.9582 275.1564 15.69707238130337","mean_motion":15.69707238,"eccentricity":0.0001119,"inclination_deg":53.1583,"raan_deg":305.3099,"arg_perigee_deg":84.9582,"mean_anomaly_deg":275.1564,"bstar":1.4952e-6,"rev_number":13033,"period_min":91.736851633222,"perigee_km":358.98068638003,"apogee_km":360.48862205624,"semimajor_km":6737.8716542181,"source":"CELESTRAK","updated_at":"2026-09-22T09:00:49.146981Z"}}